TRINITY LAKE (CLE)

Elevation: 2370' · TRINITY R basin · Operator: US Bureau of Reclamation

Provisional data, subject to change.
Query executed Thursday at 23:16:01   clock

Select a sensor type for a plot of data.
Note: Reservoir Flows are daily averages.

Earlier

Date RES ELE    STORAGE    RES CHG    OUTFLOW    INFLOW    EVAP    FNF    RIV REL    PPT INC    SPILL    DIS PWR   
 FEET   AF   AF   CFS   CFS   CFS   CFS   CFS   INCHES   CFS   CFS  
03/25/2014 2285.01 1292521 0 791 829 38 829 0 0.00 0 791
03/26/2014 2285.01 1292521 0 658 671 13 671 0 0.43 0 658
03/27/2014 2285.14 1293927 1406 947 995 48 995 0 0.23 0 947
03/28/2014 2285.11 1293603 -324 878 737 22 737 0 0.15 0 878
03/29/2014 2285.74 1300417 6814 758 4209 16 4209 0 1.31 0 758
03/30/2014 2285.74 1300417 0 589 611 22 611 0 0.02 0 589
03/31/2014 2286.33 1306823 6406 846 4108 32 4108 0 0.02 0 846
04/01/2014 2286.46 1308239 1416 634 1358 10 1358 0 0.46 0 634
04/02/2014 2286.46 1308239 0 894 913 19 913 0 0.60 0 894
04/03/2014 2286.46 1308239 0 794 820 26 820 0 0.00 0 794
04/04/2014 2286.46 1308239 0 1767 1789 22 1789 0 0.03 0 1767
04/05/2014 2286.74 1311289 3050 1552 3106 16 3106 0 0.02 0 1552
04/06/2014 2286.74 1311289 0 1952 2003 51 2003 0 0.00 0 1952
04/07/2014 2286.64 1310200 -1089 1498 994 45 1495 e 0 0.00 0 1498
04/08/2014 2286.64 1310200 0 1938 1996 58 1495 e 0 0.00 0 1938
04/09/2014 2286.64 1310200 0 1621 1704 83 1704 0 0.00 0 1621
04/10/2014 2286.64 1310200 0 1784 1842 58 1842 0 0.00 0 1784
04/11/2014 2286.69 1310744 544 1698 2030 58 1919 e 0 0.00 0 1698
04/12/2014 2286.69 1310744 0 1743 1807 64 1919 e 0 0.00 0 1743
04/13/2014 2286.69 1310744 0 1757 1831 74 1831 0 0.00 0 1757
04/14/2014 2286.69 1310744 0 1616 1690 74 1690 0 0.00 0 1616
04/15/2014 2286.69 1310744 0 1669 1733 64 1733 0 0.00 0 1669
04/16/2014 2286.69 1310744 0 1849 1916 67 1282 e 0 0.00 0 1849
04/17/2014 2286.69 1310744 0 1718 1773 55 1282 e 0 0.00 0 1718
04/18/2014 2286.27 1306170 -4574 1902 -337 67 1282 e 0 0.00 0 1902
04/19/2014 2286.05 1303774 -2396 1825 678 61 1037 e 0 0.00 0 1825
04/20/2014 2286.05 1303774 0 1816 1889 73 1037 e 0 0.00 0 1816
04/21/2014 2286.05 1303774 0 1818 1875 57 1875 0 0.00 0 1818
04/22/2014 2286.05 1303774 0 1776 1814 38 1814 0 0.00 0 1776
04/23/2014 2285.40 1296739 -7035 1835 -- 67 -- 0 0.00 0 1835
04/24/2014 -- -- -- -- -- -- -- -- -- -- --

Later | Latest

Warning! This data is preliminary and subject to revision.

Download Data Now Download Data Now | Show CLE Map | Plot CLE Data | 1 Month CLE Data | Real-Time CLE Data | CLE Info